Flag for Russia Weather past 2 weeks in Khanty-Mansiysk, Russia

Now
64 °F

Clear.


Feels Like: 64 °F
Forecast: 60 / 74 °F
Wind: 1 mph from North

Location: Hanty-Mansijsk

Current Time: Jul 31, 2015 at 1:53:23 AM

Latest Report: Jul 31, 2015 at 1:30 AM


Visibility: 10 mi

Pressure: 29.62 "Hg

Humidity: 68%

Dew point: 54 °F

Location of Khanty-MansiyskLocation

Historic Weather in Khanty-Mansiysk — Graph

°F

Khanty-Mansiysk temperature yesterday

Maximum temperature yesterday: 73 °F (at 4:30 PM)
Minimum temperature yesterday: 55 °F (at 4:30 AM)
Average temperature yesterday: 65 °F

Past Weeks' High & Low Weather Summary

 TemperatureHumidityPressure
High77 °F (Jul 21, 2:30 PM)94% (Jul 18, 6:30 AM)29.80 "Hg (Jul 18, 6:30 AM)
Low54 °F (Jul 19, 8:30 PM)34% (Jul 21, 2:30 PM)29.06 "Hg (Jul 19, 2:00 PM)
Average63 °F73%29.56 "Hg
* Reported Midnight between Jul 15 and Jul 16 — Jul 31 12:30 AM, Khanty-Mansiysk, Weather by CustomWeather, © 2015

Note: Actual official high and low records may vary slightly from our data, if they occured in-between our weather recording intervals... More about our weather records

Advertising

Khanty-Mansiysk weather history for previous 24 hours

 ConditionsComfort  
Time TempWeatherWind HumidityBarometerVisibility
12:30 AM
Fri, Jul 31
63 °FClear.1 mph73%29.62 "Hg10 mi
12:00 AM61 °FClear.1 mph83%29.62 "Hg10 mi
11:30 PM
Thu, Jul 30
61 °FClear.1 mph83%29.62 "Hg10 mi
11:00 PM61 °FClear.No wind83%29.62 "Hg10 mi
10:30 PM63 °FClear.No wind77%29.62 "Hg10 mi
10:00 PM63 °FSunny.No wind77%29.62 "Hg10 mi
9:30 PM64 °FSunny.No wind78%29.65 "Hg10 mi
9:00 PM66 °FSunny.No wind68%29.65 "Hg10 mi
8:30 PM66 °FSunny.No wind73%29.65 "Hg10 mi
8:00 PM66 °FSunny.No wind68%29.65 "Hg10 mi
7:30 PM70 °FSunny.No wind57%29.65 "Hg10 mi
7:00 PM70 °FSunny.No wind57%29.65 "Hg10 mi
6:30 PM72 °FSunny.No wind50%29.65 "Hg10 mi
6:00 PM72 °FSunny.1 mph50%29.65 "Hg10 mi
5:30 PM72 °FSunny.No wind47%29.62 "Hg10 mi
5:00 PM72 °FSunny.1 mph47%29.62 "Hg10 mi
4:30 PM73 °FPassing clouds.3 mph44%29.62 "HgN/A
4:00 PM72 °FPassing clouds.3 mph47%29.65 "HgN/A
3:30 PM72 °FSunny.6 mph44%29.65 "Hg10 mi
3:00 PM72 °FSunny.6 mph44%29.65 "Hg10 mi
2:30 PM72 °FSunny.8 mph47%29.65 "Hg10 mi
2:00 PM72 °FSunny.8 mph47%29.65 "Hg10 mi
1:30 PM72 °FSunny.8 mph47%29.65 "Hg10 mi
1:00 PM70 °FPassing clouds.3 mph53%29.65 "HgN/A
12:30 PM70 °FSunny.6 mph57%29.65 "Hg10 mi
12:00 PM68 °FPassing clouds.6 mph49%29.65 "HgN/A
11:30 AM68 °FPassing clouds.3 mph56%29.65 "HgN/A
11:00 AM68 °FPassing clouds.6 mph53%29.65 "HgN/A
10:30 AM68 °FPassing clouds.3 mph56%29.68 "HgN/A
10:00 AM66 °FPassing clouds.6 mph56%29.68 "HgN/A
9:30 AM64 °FPassing clouds.3 mph64%29.68 "HgN/A
8:30 AM63 °FSunny.1 mph68%29.68 "Hg10 mi
8:00 AM63 °FPassing clouds.3 mph68%29.65 "HgN/A
7:30 AM61 °FPassing clouds.3 mph72%29.65 "HgN/A
7:00 AM59 °FPassing clouds.3 mph77%29.68 "HgN/A
6:30 AM59 °FPassing clouds.3 mph77%29.65 "HgN/A
6:00 AM59 °FSunny.3 mph77%29.65 "Hg10 mi
5:30 AM57 °FSunny.1 mph88%29.65 "Hg10 mi
5:00 AM57 °FSunny.1 mph82%29.65 "Hg10 mi
4:30 AM55 °FClear.1 mph94%29.65 "Hg10 mi
4:00 AM57 °FPassing clouds.1 mph88%29.65 "HgN/A
3:30 AM57 °FPassing clouds.1 mph88%29.65 "Hg5 mi
3:00 AM57 °FPassing clouds.1 mph88%29.65 "Hg6 mi
2:30 AM57 °FFog.1 mph88%29.65 "Hg3 mi
2:00 AM59 °FClear.1 mph82%29.65 "Hg10 mi
1:30 AM59 °FClear.1 mph82%29.65 "Hg10 mi
1:00 AM61 °FClear.1 mph77%29.65 "Hg10 mi
Weather by CustomWeather, © 2015

See weather overviewHow to use our weather pages